| time (UTC) | temp F | wind direction | speed knots | gust knots | rain 1hr in | rain 24hr in | rain mn in | humidity % | barometer mb |
| 20260504014957 | 47 | 310 | 0.0 | 0.9 | 0.00 | 0.00 | 0.00 | 74 | 1019.5 |
| 20260504014453 | 47 | 141 | 0.0 | 0.9 | 0.00 | 0.00 | 0.00 | 73 | 1019.6 |
| 20260504013950 | 48 | 114 | 0.0 | 0.9 | 0.00 | 0.00 | 0.00 | 71 | 1019.7 |
| 20260504013449 | 48 | 113 | 0.0 | 0.0 | 0.00 | 0.00 | 0.00 | 71 | 1019.7 |
| 20260504012944 | 48 | 135 | 0.0 | 0.9 | 0.00 | 0.00 | 0.00 | 70 | 1019.6 |
| 20260504012443 | 49 | 119 | 0.0 | 0.9 | 0.00 | 0.00 | 0.00 | 69 | 1019.6 |
| 20260504011940 | 49 | 186 | 0.0 | 0.0 | 0.00 | 0.00 | 0.00 | 68 | 1019.6 |
| 20260504011436 | 49 | 235 | 0.0 | 0.0 | 0.00 | 0.00 | 0.00 | 70 | 1019.5 |
| 20260504010932 | 50 | 202 | 0.0 | 0.9 | 0.00 | 0.00 | 0.00 | 64 | 1019.4 |
| 20260504010429 | 50 | 229 | 0.0 | 0.0 | 0.00 | 0.00 | 0.00 | 66 | 1019.6 |
| 20260504005925 | 51 | 173 | 0.0 | 0.0 | 0.00 | 0.00 | 0.00 | 65 | 1019.7 |
| 20260504005422 | 51 | 212 | 0.0 | 0.0 | 0.00 | 0.00 | 0.00 | 62 | 1019.6 |
| 20260504004919 | 51 | 246 | 0.0 | 0.9 | 0.00 | 0.00 | 0.00 | 62 | 1019.6 |
| 20260504004417 | 52 | 238 | 0.0 | 0.9 | 0.00 | 0.00 | 0.00 | 57 | 1019.4 |
| 20260504003914 | 52 | 211 | 0.0 | 0.9 | 0.00 | 0.00 | 0.00 | 55 | 1019.6 |
| 20260504003410 | 53 | 208 | 0.0 | 0.9 | 0.00 | 0.00 | 0.00 | 54 | 1019.7 |
| 20260504002907 | 53 | 182 | 0.0 | 1.7 | 0.00 | 0.00 | 0.00 | 53 | 1019.9 |
| 20260504002404 | 54 | 207 | 0.9 | 1.7 | 0.00 | 0.00 | 0.00 | 53 | 1019.7 |
| 20260504001901 | 54 | 218 | 0.9 | 0.9 | 0.00 | 0.00 | 0.00 | 52 | 1020.2 |
| 20260504001359 | 55 | 229 | 0.0 | 0.0 | 0.00 | 0.00 | 0.00 | 53 | 1019.9 |
| 20260504000855 | 55 | 246 | 0.0 | 0.9 | 0.00 | 0.00 | 0.00 | 51 | 1020.2 |
| 20260504000354 | 55 | 247 | 0.9 | 1.7 | 0.00 | 0.00 | 0.00 | 49 | 1020.0 |
| 20260503235849 | 56 | 238 | 0.9 | 1.7 | 0.00 | 0.00 | 0.00 | 48 | 1020.3 |
| 20260503235347 | 56 | 241 | 0.0 | 1.7 | 0.00 | 0.00 | 0.00 | 47 | 1020.2 |
| 20260503234844 | 57 | 222 | 0.0 | 0.9 | 0.00 | 0.00 | 0.00 | 47 | 1020.2 |
| 20260503234342 | 57 | 230 | 0.9 | 1.7 | 0.00 | 0.00 | 0.00 | 46 | 1020.2 |
| 20260503233839 | 58 | 245 | 1.7 | 1.7 | 0.00 | 0.00 | 0.00 | 45 | 1020.3 |
| 20260503233335 | 58 | 29 | 0.0 | 1.7 | 0.00 | 0.00 | 0.00 | 43 | 1019.9 |
| 20260503232826 | 58 | 217 | 1.7 | 1.7 | 0.00 | 0.00 | 0.00 | 41 | 1019.8 |
| 20260503232324 | 58 | 178 | 0.0 | 1.7 | 0.00 | 0.00 | 0.00 | 43 | 1020.0 |
| 20260503231822 | 59 | 199 | 0.0 | 2.6 | 0.00 | 0.00 | 0.00 | 43 | 1019.8 |
| 20260503231318 | 59 | 264 | 0.9 | 1.7 | 0.00 | 0.00 | 0.00 | 40 | 1020.2 |
| 20260503230814 | 59 | 265 | 1.7 | 1.7 | 0.00 | 0.00 | 0.00 | 43 | 1019.9 |
| 20260503230311 | 60 | 283 | 1.7 | 1.7 | 0.00 | 0.00 | 0.00 | 41 | 1020.0 |
| 20260503225809 | 60 | 160 | 0.9 | 1.7 | 0.00 | 0.00 | 0.00 | 38 | 1020.5 |
| 20260503225305 | 60 | 305 | 1.7 | 3.5 | 0.00 | 0.00 | 0.00 | 38 | 1020.5 |
| 20260503224801 | 61 | 283 | 0.0 | 0.9 | 0.00 | 0.00 | 0.00 | 39 | 1020.5 |
| 20260503224259 | 61 | 280 | 0.9 | 2.6 | 0.00 | 0.00 | 0.00 | 39 | 1020.7 |
| 20260503223756 | 61 | 333 | 0.9 | 2.6 | 0.00 | 0.00 | 0.00 | 39 | 1020.7 |
| 20260503223254 | 62 | 185 | 0.0 | 2.6 | 0.00 | 0.00 | 0.00 | 40 | 1020.6 |
| 20260503222749 | 61 | 278 | 0.9 | 2.6 | 0.00 | 0.00 | 0.00 | 41 | 1020.6 |
| 20260503222248 | 61 | 19 | 0.0 | 1.7 | 0.00 | 0.00 | 0.00 | 42 | 1020.6 |
| 20260503221746 | 61 | 236 | 2.6 | 5.2 | 0.00 | 0.00 | 0.00 | 42 | 1020.7 |
| 20260503221243 | 61 | 46 | 2.6 | 2.6 | 0.00 | 0.00 | 0.00 | 42 | 1020.8 |
| 20260503220740 | 61 | 290 | 1.7 | 3.5 | 0.00 | 0.00 | 0.00 | 42 | 1020.8 |
| 20260503220237 | 61 | 25 | 0.0 | 5.2 | 0.00 | 0.00 | 0.00 | 40 | 1020.8 |
| 20260503215733 | 62 | 213 | 1.7 | 3.5 | 0.00 | 0.00 | 0.00 | 39 | 1020.9 |
| 20260503215230 | 62 | 148 | 1.7 | 1.7 | 0.00 | 0.00 | 0.00 | 40 | 1020.9 |
| 20260503214729 | 62 | 319 | 0.0 | 4.3 | 0.00 | 0.00 | 0.00 | 41 | 1021.1 |
| 20260503214225 | 64 | 236 | 3.5 | 4.3 | 0.00 | 0.00 | 0.00 | 37 | 1020.9 |
| 20260503213723 | 65 | 249 | 1.7 | 3.5 | 0.00 | 0.00 | 0.00 | 37 | 1021.0 |
| 20260503213220 | 65 | 334 | 0.0 | 3.5 | 0.00 | 0.00 | 0.00 | 37 | 1021.2 |
| 20260503212717 | 64 | 300 | 1.7 | 4.3 | 0.00 | 0.00 | 0.00 | 37 | 1021.3 |
| 20260503212215 | 64 | 233 | 2.6 | 2.6 | 0.00 | 0.00 | 0.00 | 37 | 1021.3 |
| 20260503211712 | 64 | 306 | 1.7 | 3.5 | 0.00 | 0.00 | 0.00 | 39 | 1021.3 |
| 20260503211208 | 64 | 201 | 2.6 | 3.5 | 0.00 | 0.00 | 0.00 | 37 | 1021.2 |
| 20260503210704 | 64 | 252 | 1.7 | 3.5 | 0.00 | 0.00 | 0.00 | 38 | 1021.2 |
| 20260503210201 | 63 | 256 | 0.9 | 3.5 | 0.00 | 0.00 | 0.00 | 38 | 1021.5 |
| 20260503205656 | 63 | 233 | 1.7 | 3.5 | 0.00 | 0.00 | 0.00 | 38 | 1021.6 |
| 20260503205153 | 63 | 63 | 3.5 | 3.5 | 0.00 | 0.00 | 0.00 | 38 | 1021.3 |
| 20260503204649 | 63 | 53 | 0.9 | 4.3 | 0.00 | 0.00 | 0.00 | 38 | 1021.5 |
| 20260503204147 | 63 | 167 | 2.6 | 3.5 | 0.00 | 0.00 | 0.00 | 39 | 1021.7 |
| 20260503203644 | 63 | 201 | 1.7 | 5.2 | 0.00 | 0.00 | 0.00 | 36 | 1021.8 |
| 20260503203142 | 64 | 149 | 2.6 | 4.3 | 0.00 | 0.00 | 0.00 | 36 | 1022.2 |
| 20260503202638 | 63 | 263 | 2.6 | 3.5 | 0.00 | 0.00 | 0.00 | 39 | 1021.7 |
| 20260503202137 | 63 | 320 | 0.9 | 3.5 | 0.00 | 0.00 | 0.00 | 39 | 1021.8 |
| 20260503201634 | 63 | 295 | 2.6 | 3.5 | 0.00 | 0.00 | 0.00 | 41 | 1022.2 |
| 20260503201131 | 64 | 75 | 0.9 | 3.5 | 0.00 | 0.00 | 0.00 | 37 | 1021.8 |
| 20260503200622 | 65 | 19 | 0.0 | 1.7 | 0.00 | 0.00 | 0.00 | 37 | 1022.1 |
| 20260503200118 | 64 | 298 | 0.0 | 3.5 | 0.00 | 0.00 | 0.00 | 36 | 1022.1 |
| 20260503195616 | 63 | 281 | 1.7 | 3.5 | 0.00 | 0.00 | 0.00 | 37 | 1022.3 |
| 20260503195112 | 63 | 277 | 1.7 | 2.6 | 0.00 | 0.00 | 0.00 | 38 | 1022.5 |
| 20260503194609 | 63 | 8 | 0.9 | 3.5 | 0.00 | 0.00 | 0.00 | 39 | 1022.5 |
| 20260503194104 | 63 | 263 | 2.6 | 3.5 | 0.00 | 0.00 | 0.00 | 37 | 1022.9 |
| 20260503193601 | 62 | 305 | 1.7 | 4.3 | 0.00 | 0.00 | 0.00 | 36 | 1022.6 |
| 20260503193056 | 62 | 147 | 2.6 | 3.5 | 0.00 | 0.00 | 0.00 | 38 | 1022.6 |
| 20260503192553 | 62 | 85 | 2.6 | 3.5 | 0.00 | 0.00 | 0.00 | 41 | 1022.6 |
| 20260503192048 | 62 | 150 | 2.6 | 2.6 | 0.00 | 0.00 | 0.00 | 40 | 1022.7 |
| 20260503191540 | 61 | 219 | 2.6 | 5.2 | 0.00 | 0.00 | 0.00 | 40 | 1022.7 |
| 20260503191037 | 62 | 97 | 2.6 | 5.2 | 0.00 | 0.00 | 0.00 | 38 | 1022.9 |
| 20260503190533 | 62 | 313 | 0.0 | 2.6 | 0.00 | 0.00 | 0.00 | 42 | 1022.9 |
| 20260503190030 | 62 | 130 | 0.9 | 3.5 | 0.00 | 0.00 | 0.00 | 41 | 1023.0 |
| 20260503185526 | 62 | 223 | 1.7 | 4.3 | 0.00 | 0.00 | 0.00 | 41 | 1023.1 |
| 20260503185021 | 62 | 50 | 0.9 | 2.6 | 0.00 | 0.00 | 0.00 | 39 | 1023.0 |
| 20260503184518 | 61 | 180 | 1.7 | 5.2 | 0.00 | 0.00 | 0.00 | 44 | 1023.1 |
| 20260503184014 | 60 | 15 | 2.6 | 3.5 | 0.00 | 0.00 | 0.00 | 42 | 1023.2 |
| 20260503183511 | 60 | 136 | 1.7 | 5.2 | 0.00 | 0.00 | 0.00 | 45 | 1023.4 |
| 20260503183008 | 60 | 266 | 1.7 | 3.5 | 0.00 | 0.00 | 0.00 | 43 | 1023.2 |
| 20260503182507 | 60 | 199 | 1.7 | 3.5 | 0.00 | 0.00 | 0.00 | 42 | 1023.3 |
| 20260503182005 | 60 | 93 | 1.7 | 2.6 | 0.00 | 0.00 | 0.00 | 46 | 1023.5 |
| 20260503181501 | 60 | 171 | 1.7 | 3.5 | 0.00 | 0.00 | 0.00 | 46 | 1023.2 |
| 20260503180956 | 60 | 254 | 2.6 | 2.6 | 0.00 | 0.00 | 0.00 | 48 | 1023.4 |
| 20260503180455 | 60 | 218 | 2.6 | 4.3 | 0.00 | 0.00 | 0.00 | 45 | 1023.4 |
| 20260503175951 | 60 | 4 | 0.9 | 3.5 | 0.00 | 0.00 | 0.00 | 46 | 1023.5 |
| 20260503175449 | 60 | 216 | 0.9 | 2.6 | 0.00 | 0.00 | 0.00 | 46 | 1023.6 |
| 20260503174945 | 58 | 202 | 0.0 | 3.5 | 0.00 | 0.00 | 0.00 | 48 | 1023.6 |
| 20260503174443 | 59 | 10 | 2.6 | 5.2 | 0.00 | 0.00 | 0.00 | 46 | 1023.7 |
| 20260503173938 | 58 | 203 | 1.7 | 6.1 | 0.00 | 0.00 | 0.00 | 50 | 1023.6 |
| 20260503173434 | 59 | 195 | 1.7 | 3.5 | 0.00 | 0.00 | 0.00 | 52 | 1023.6 |
| 20260503172931 | 57 | 248 | 4.3 | 7.8 | 0.00 | 0.00 | 0.00 | 54 | 1024.0 |
| 20260503172429 | 58 | 291 | 0.9 | 5.2 | 0.00 | 0.00 | 0.00 | 50 | 1023.8 |
| 20260503171925 | 59 | 64 | 3.5 | 3.5 | 0.00 | 0.00 | 0.00 | 48 | 1024.0 |
| 20260503171422 | 58 | 163 | 1.7 | 3.5 | 0.00 | 0.00 | 0.00 | 48 | 1024.1 |
| 20260503170919 | 57 | 226 | 1.7 | 2.6 | 0.00 | 0.00 | 0.00 | 52 | 1024.1 |
| 20260503170415 | 57 | 156 | 2.6 | 3.5 | 0.00 | 0.00 | 0.00 | 50 | 1024.3 |
| 20260503150808 | 54 | 147 | 1.7 | 1.7 | 0.00 | 0.00 | 0.00 | 57 | 1025.0 |
| 20260503150303 | 53 | 255 | 2.6 | 2.6 | 0.00 | 0.00 | 0.00 | 54 | 1024.9 |
| 20260503140228 | 53 | 215 | 0.0 | 1.7 | 0.00 | 0.00 | 0.00 | 63 | 1024.8 |
| 20260503131158 | 46 | 160 | 0.0 | 2.6 | 0.00 | 0.00 | 0.00 | 82 | 1024.6 |
| 20260503130655 | 44 | 343 | 0.0 | 0.9 | 0.00 | 0.00 | 0.00 | 88 | 1024.7 |
| 20260503130152 | 44 | 208 | 1.7 | 2.6 | 0.00 | 0.00 | 0.00 | 90 | 1024.6 |
| 20260503120118 | 35 | 257 | 0.0 | 1.7 | 0.00 | 0.00 | 0.00 | 99 | 1024.3 |
| 20260503110539 | 33 | 106 | 0.0 | 1.7 | 0.00 | 0.00 | 0.00 | 99 | 1023.4 |
| 20260503090426 | 37 | 255 | 0.0 | 1.7 | 0.00 | 0.00 | 0.00 | 99 | 1022.6 |
| 20260503081353 | 36 | 242 | 0.0 | 1.7 | 0.00 | 0.00 | 0.00 | 98 | 1022.6 |
| 20260503080849 | 36 | 89 | 0.9 | 1.7 | 0.00 | 0.00 | 0.00 | 98 | 1022.4 |
| 20260503080347 | 35 | 111 | 0.0 | 0.9 | 0.00 | 0.00 | 0.00 | 98 | 1022.5 |
| 20260503072823 | 35 | 168 | 0.0 | 1.7 | 0.00 | 0.00 | 0.00 | 97 | 1022.4 |
| 20260503072320 | 36 | 120 | 0.0 | 1.7 | 0.00 | 0.00 | 0.00 | 98 | 1022.2 |
| 20260503071816 | 36 | 287 | 0.0 | 1.7 | 0.00 | 0.00 | 0.00 | 97 | 1022.4 |
| 20260503071314 | 36 | 181 | 0.0 | 1.7 | 0.00 | 0.00 | 0.00 | 97 | 1022.1 |
| 20260503070809 | 36 | 121 | 0.0 | 0.9 | 0.00 | 0.00 | 0.00 | 97 | 1022.3 |
| 20260503070302 | 36 | 135 | 0.0 | 1.7 | 0.00 | 0.00 | 0.00 | 97 | 1022.1 |
| 20260503060221 | 38 | 145 | 0.0 | 1.7 | 0.00 | 0.00 | 0.00 | 97 | 1022.5 |
| 20260503054708 | 38 | 114 | 0.0 | 0.9 | 0.00 | 0.00 | 0.00 | 96 | 1022.1 |
| 20260503054205 | 38 | 131 | 0.0 | 1.7 | 0.00 | 0.00 | 0.00 | 96 | 1022.4 |
| 20260503053703 | 38 | 117 | 0.0 | 1.7 | 0.00 | 0.00 | 0.00 | 97 | 1022.4 |
| 20260503053201 | 39 | 102 | 0.0 | 1.7 | 0.00 | 0.00 | 0.00 | 96 | 1022.1 |
| 20260503052657 | 39 | 147 | 0.0 | 1.7 | 0.00 | 0.00 | 0.00 | 96 | 1022.5 |
| 20260503052154 | 39 | 113 | 0.0 | 1.7 | 0.00 | 0.00 | 0.00 | 96 | 1021.9 |
| 20260503051649 | 39 | 180 | 0.0 | 1.7 | 0.00 | 0.00 | 0.00 | 96 | 1022.2 |
| 20260503051147 | 39 | 161 | 0.9 | 1.7 | 0.00 | 0.00 | 0.00 | 96 | 1021.8 |
| 20260503050643 | 40 | 124 | 0.9 | 1.7 | 0.00 | 0.00 | 0.00 | 96 | 1021.9 |
| 20260503050140 | 40 | 124 | 0.0 | 0.9 | 0.00 | 0.00 | 0.00 | 96 | 1021.9 |
| 20260503045638 | 40 | 81 | 0.0 | 2.6 | 0.00 | 0.03 | 0.03 | 96 | 1021.9 |
| 20260503045135 | 40 | 150 | 0.0 | 1.7 | 0.00 | 0.03 | 0.03 | 96 | 1021.7 |
| 20260503044631 | 40 | 214 | 1.7 | 1.7 | 0.00 | 0.03 | 0.03 | 96 | 1021.8 |
| 20260503044129 | 40 | 232 | 0.0 | 1.7 | 0.00 | 0.03 | 0.03 | 96 | 1021.8 |
| 20260503043625 | 40 | 114 | 0.9 | 2.6 | 0.00 | 0.03 | 0.03 | 96 | 1021.6 |
| 20260503043122 | 41 | 194 | 0.0 | 1.7 | 0.00 | 0.03 | 0.03 | 96 | 1021.7 |
| 20260503042619 | 41 | 165 | 0.0 | 1.7 | 0.00 | 0.03 | 0.03 | 96 | 1021.5 |
| 20260503042115 | 41 | 166 | 0.9 | 1.7 | 0.00 | 0.03 | 0.03 | 96 | 1021.7 |
| 20260503041612 | 41 | 328 | 1.7 | 1.7 | 0.00 | 0.03 | 0.03 | 96 | 1021.4 |
| 20260503041110 | 42 | 202 | 0.0 | 1.7 | 0.00 | 0.03 | 0.03 | 96 | 1021.7 |
| 20260503040607 | 42 | 235 | 0.0 | 0.0 | 0.00 | 0.03 | 0.03 | 96 | 1021.6 |
| 20260503040104 | 42 | 212 | 0.0 | 0.0 | 0.00 | 0.03 | 0.03 | 96 | 1021.6 |
| 20260503035600 | 42 | 147 | 0.0 | 1.7 | 0.00 | 0.03 | 0.03 | 96 | 1021.5 |
| 20260503035058 | 42 | 154 | 0.0 | 0.9 | 0.00 | 0.03 | 0.03 | 96 | 1021.3 |
| 20260503034555 | 42 | 149 | 0.0 | 1.7 | 0.00 | 0.03 | 0.03 | 96 | 1021.3 |
| 20260503034052 | 42 | 162 | 0.0 | 0.9 | 0.00 | 0.03 | 0.03 | 95 | 1021.5 |
| 20260503033549 | 43 | 224 | 0.0 | 0.9 | 0.00 | 0.03 | 0.03 | 96 | 1021.4 |
| 20260503033047 | 43 | 173 | 0.0 | 0.0 | 0.00 | 0.03 | 0.03 | 95 | 1021.2 |
| 20260503032545 | 43 | 128 | 0.0 | 0.9 | 0.00 | 0.03 | 0.03 | 96 | 1021.5 |
| 20260503032043 | 43 | 214 | 0.0 | 0.0 | 0.00 | 0.03 | 0.03 | 96 | 1021.5 |
| 20260503031541 | 43 | 124 | 0.0 | 0.9 | 0.00 | 0.03 | 0.03 | 96 | 1021.6 |
| 20260503031038 | 43 | 162 | 0.9 | 1.7 | 0.00 | 0.03 | 0.03 | 96 | 1021.4 |
| 20260503030533 | 43 | 237 | 0.0 | 0.0 | 0.00 | 0.03 | 0.03 | 96 | 1021.7 |
| 20260503030031 | 43 | 119 | 0.0 | 0.9 | 0.00 | 0.03 | 0.03 | 96 | 1021.6 |
| 20260503025527 | 43 | 235 | 0.0 | 0.9 | 0.00 | 0.03 | 0.03 | 95 | 1021.5 |
| 20260503025026 | 43 | 157 | 0.0 | 1.7 | 0.00 | 0.03 | 0.03 | 95 | 1021.5 |
| 20260503024521 | 43 | 124 | 0.0 | 2.6 | 0.00 | 0.03 | 0.03 | 95 | 1021.4 |
| 20260503024019 | 43 | 122 | 0.0 | 0.9 | 0.00 | 0.03 | 0.03 | 95 | 1021.2 |
| 20260503023515 | 43 | 154 | 0.0 | 1.7 | 0.00 | 0.03 | 0.03 | 95 | 1021.4 |
| 20260503023013 | 44 | 147 | 0.0 | 0.0 | 0.00 | 0.03 | 0.03 | 95 | 1021.2 |
| 20260503022509 | 44 | 131 | 1.7 | 1.7 | 0.00 | 0.03 | 0.03 | 95 | 1021.0 |
| 20260503022003 | 44 | 114 | 0.0 | 0.9 | 0.00 | 0.03 | 0.03 | 94 | 1021.1 |
| 20260503021500 | 44 | 246 | 0.0 | 0.0 | 0.00 | 0.03 | 0.03 | 94 | 1021.2 |
| 20260503020957 | 44 | 110 | 0.0 | 0.9 | 0.00 | 0.03 | 0.03 | 94 | 1021.1 |
| 20260503020455 | 44 | 145 | 0.0 | 1.7 | 0.00 | 0.03 | 0.03 | 93 | 1021.1 |
| 20260503015951 | 45 | 132 | 0.0 | 1.7 | 0.00 | 0.03 | 0.03 | 93 | 1020.9 |
| 20260503015448 | 45 | 135 | 0.0 | 0.0 | 0.00 | 0.03 | 0.03 | 93 | 1021.1 |